Location: Alta
(39.2070°N, 120.8111°W)
Time: 13:09:51
(UTC+00:00)

COSMOS 2251 DEB - Visible Passes

Search period start: 08 December 2023 00:00
Search period end: 18 December 2023 00:00
Orbit: 646 x 780 km, 74.0° (Epoch: 04 December)

Date Brightness Start Highest point End Pass type
(mag) Time Alt. Az. Time Alt. Az. Time Alt. Az.
10 Dec ? 14:38:34 10° N 14:42:42 30° ENE 14:46:45 10° SE visible
11 Dec ? 13:46:48 10° NNE 13:48:47 12° NE 13:50:45 10° E visible
12 Dec ? 14:32:14 10° N 14:36:42 43° ENE 14:41:05 10° SE visible
13 Dec ? 13:39:45 10° NNE 13:42:54 18° ENE 13:46:00 10° ESE visible
14 Dec ? 14:25:57 10° NNW 14:30:37 65° ENE 14:35:09 10° SSE visible
15 Dec ? 13:33:03 10° N 13:36:54 25° ENE 13:40:39 10° ESE visible
16 Dec ? 12:42:31 10° NE 12:42:50 10° NE 12:43:10 10° ENE visible
16 Dec ? 14:19:44 10° NNW 14:24:24 84° WSW 14:28:58 10° SSE visible
17 Dec ? 13:26:31 10° N 13:30:47 35° ENE 13:34:58 10° SE visible
